Hettinger, ND

11:00 AM MST on December 07, 2016 (GMT -0700)
Hettinger Municipal

Weather History for KHEI - October, 2012

Change the Weather History Date:

Tuesday, October 23, 2012

  Actual Average Record
Temperature  
Mean Temperature 39 °F -  
Max Temperature 46 °F 53 °F 72 °F (1998)
Min Temperature 32 °F 27 °F 10 °F (2006)
Degree Days  
Heating Degree Days 26 25  
Month to date heating degree days 473 469  
Since 1 July heating degree days 754 840  
Cooling Degree Days 0 0  
Month to date cooling degree days 0 0  
Year to date cooling degree days 581 376  
Moisture  
Dew Point 39 °F    
Average Humidity 88    
Maximum Humidity 96    
Minimum Humidity 73    
Precipitation  
Precipitation 0.12 in 0.06 in 0.30 in (2001)
Month to date precipitation 0.69 0.88  
Year to date precipitation 14.49 14.80  
Sea Level Pressure  
Sea Level Pressure 29.73 in    
Wind  
Wind Speed 10 mph (West)    
Max Wind Speed 20 mph    
Max Gust Speed 24 mph    
Visibility 8 miles    
Events Rain    
T = Trace of Precipitation, MM = Missing Value Source: NWS Daily Summary

Daily Weather History Graph

Daily Weather History Graph

Search for Another Location

Airport or City:

Trip Planner

Search our weather history database for the weather conditions in past years. The results will help you decide how hot, cold, wet, or windy it might be!

Date:

Astronomy

Oct. 23, 2012 Rise Set
Actual Time 7:19 AM MDT 5:49 PM MDT
Civil Twilight 6:48 AM MDT 6:20 PM MDT
Nautical Twilight 6:13 AM MDT 6:55 PM MDT
Astronomical Twilight 5:39 AM MDT 7:29 PM MDT
Moon 2:51 PM MDT (10/23) 12:54 AM MDT (10/23)
Length of Visible Light 11h 31m
Length of Day
10h 30m
Waxing Gibbous, 67% of the Moon is Illuminated
Oct 23
Waxing Gibbous
Oct 29
Full
Nov 6
Last Quarter
Nov 13
New
Nov 20
First Quarter

Hourly Weather History & Observations

Time (MDT) Temp. Windchill Dew Point Humidity Pressure Visibility Wind Dir Wind Speed Gust Speed Precip Events Conditions
12:25 AM 44.6 °F 39.2 °F 41.0 °F 87% 29.66 in 9.0 mi SSE 10.4 mph - N/A   Overcast
12:53 AM 44.1 °F 37.7 °F 41.0 °F 89% 29.68 in 8.0 mi SSE 12.7 mph - N/A   Overcast
1:26 AM 42.8 °F 41.1 °F 41.0 °F 93% 29.68 in 8.0 mi SW 3.5 mph - N/A   Overcast
1:53 AM 43.0 °F 36.8 °F 39.9 °F 89% 29.68 in 9.0 mi SSE 11.5 mph - N/A   Overcast
2:25 AM 42.8 °F 37.0 °F 39.2 °F 87% 29.64 in 10.0 mi SSE 10.4 mph - N/A   Overcast
2:53 AM 43.0 °F 37.7 °F 39.9 °F 89% 29.68 in 10.0 mi South 9.2 mph - N/A   Overcast
3:53 AM 43.0 °F 38.2 °F 39.9 °F 89% 29.68 in 7.0 mi South 8.1 mph - N/A   Overcast
4:53 AM 43.0 °F 38.8 °F 41.0 °F 93% 29.64 in 5.0 mi SE 6.9 mph - N/A   Overcast
5:00 AM 42.8 °F 39.3 °F 41.0 °F 93% 29.60 in 4.0 mi SE 5.8 mph - N/A   Overcast
5:22 AM 42.8 °F 39.3 °F 41.0 °F 93% 29.61 in 2.0 mi South 5.8 mph - N/A   Overcast
5:37 AM 42.8 °F 37.5 °F 41.0 °F 93% 29.61 in 4.0 mi SSE 9.2 mph - N/A   Overcast
5:53 AM 43.0 °F 38.2 °F 41.0 °F 93% 29.65 in 4.0 mi SSE 8.1 mph - N/A   Overcast
6:53 AM 43.0 °F 40.3 °F 41.0 °F 93% 29.66 in 6.0 mi SW 4.6 mph - 0.00 in   Overcast
7:53 AM 43.0 °F 39.5 °F 41.0 °F 93% 29.67 in 5.0 mi WSW 5.8 mph - N/A   Overcast
8:53 AM 43.0 °F 39.5 °F 41.0 °F 93% 29.67 in 5.0 mi WNW 5.8 mph - N/A   Overcast
9:17 AM 42.8 °F 41.1 °F 41.0 °F 93% 29.62 in 7.0 mi NNW 3.5 mph - N/A   Overcast
9:53 AM 44.1 °F 40.1 °F 41.0 °F 89% 29.69 in 8.0 mi West 6.9 mph - N/A   Overcast
10:03 AM 44.6 °F 39.7 °F 41.0 °F 87% 29.67 in 7.0 mi West 9.2 mph - 0.00 in Rain Light Rain
10:53 AM 45.0 °F 38.5 °F 42.1 °F 90% 29.70 in 5.0 mi NW 13.8 mph - 0.03 in Rain Light Rain
11:18 AM 44.6 °F 36.6 °F 42.8 °F 93% 29.67 in 7.0 mi NW 19.6 mph - 0.01 in Rain Light Rain
11:57 AM 44.6 °F 37.8 °F 42.8 °F 93% 29.71 in 2.0 mi WNW 15.0 mph - 0.01 in Rain Heavy Rain
12:07 PM 44.6 °F 37.2 °F 42.8 °F 93% 29.71 in 5.0 mi NW 17.3 mph - 0.02 in Rain Light Rain
12:25 PM 44.6 °F 37.8 °F 42.8 °F 93% 29.72 in 9.0 mi NW 15.0 mph 24.2 mph 0.02 in Rain Light Rain
12:53 PM 45.0 °F 38.2 °F 42.1 °F 90% 29.73 in 9.0 mi NW 15.0 mph - 0.02 in Rain Light Rain
1:53 PM 45.0 °F 39.3 °F 42.1 °F 90% 29.73 in 10.0 mi NW 11.5 mph - 0.02 in   Overcast
2:53 PM 45.0 °F 37.6 °F 42.1 °F 90% 29.77 in 10.0 mi WNW 17.3 mph 21.9 mph N/A   Overcast
3:04 PM 44.6 °F 36.4 °F 41.0 °F 87% 29.75 in 10.0 mi WNW 20.7 mph 26.5 mph N/A   Overcast
3:53 PM 45.0 °F 37.9 °F 39.9 °F 82% 29.80 in 10.0 mi NW 16.1 mph 24.2 mph N/A   Overcast
4:53 PM 43.0 °F 34.5 °F 39.0 °F 86% 29.83 in 10.0 mi WNW 19.6 mph - N/A   Overcast
5:53 PM 42.1 °F 34.5 °F 37.0 °F 82% 29.87 in 10.0 mi WNW 15.0 mph - N/A   Overcast
6:12 PM 42.8 °F 35.4 °F 35.6 °F 76% 29.84 in 10.0 mi WNW 15.0 mph - N/A   Overcast
6:53 PM 41.0 °F 34.3 °F 34.0 °F 76% 29.88 in 10.0 mi NW 11.5 mph - N/A   Overcast
7:53 PM 39.0 °F 32.8 °F 33.1 °F 79% 29.88 in 10.0 mi NW 9.2 mph - N/A   Mostly Cloudy
8:53 PM 37.9 °F 33.5 °F 32.0 °F 79% 29.91 in 10.0 mi WNW 5.8 mph - N/A   Clear
9:53 PM 37.0 °F 33.3 °F 32.0 °F 82% 29.95 in 10.0 mi SW 4.6 mph - N/A   Clear
10:53 PM 36.0 °F 30.3 °F 32.0 °F 86% 29.93 in 10.0 mi WNW 6.9 mph - N/A   Clear
11:53 PM 33.1 °F - 30.0 °F 89% 29.94 in 10.0 mi Calm Calm - N/A   Clear